Location: Emory University Observatory
(33.7903°N, 84.3267°W)
Time: 13:57:21
(UTC-05:00)

Envisat - Pass Details

Date: 14 October 2017
Orbit: 764 x 766 km, 98.2° (Epoch: 13 December)

Event Time Altitude Azimuth Distance (km) Brightness Sun altitude
Exits shadow 20:20:03 13° 41° (NE) 2,096 4.9 -16.5°
Drops below altitude 10° 20:21:06 10° 30° (NNE) 2,308 5.2 -16.7°
Sets 20:24:16 0° 9° (N) 3,238 6.2 -17.4°
